• In France
  • List of Countries
  • For 7 days
  • Water Temperature
  • Satellite Maps
  • Weather Map
  • Weather Widgets
  • user-avatar
    Login

    Hourly Weather Kavarna

    Today, 20 November, Monday

    Time Temperature Precipitation Wind Pressure Humidity
    00:00 +7°C° 0.3 mm 4 mps 756 mmHg 84%
    01:00 +7°C° 0.3 mm 5 mps 755 mmHg 85%
    02:00 +7°C° 0 mm 4 mps 755 mmHg 86%
    03:00 +7°C° 0.3 mm 5 mps 755 mmHg 86%
    04:00 +7°C° 0.3 mm 5 mps 755 mmHg 87%
    05:00 +7°C° 0.3 mm 6 mps 755 mmHg 88%
    06:00 +7°C° 0.9 mm 6 mps 755 mmHg 87%
    07:00 +5°C° 0.9 mm 7 mps 755 mmHg 87%
    08:00 +5°C° 0 mm 8 mps 755 mmHg 86%
    09:00 +5°C° 1.6 mm 9 mps 755 mmHg 82%
    10:00 +3°C° 1.6 mm 10 mps 755 mmHg 79%
    11:00 +3°C° 1.6 mm 10 mps 755 mmHg 76%
    12:00 +4°C° 1.4 mm 11 mps 755 mmHg 73%
    13:00 +4°C° 1.4 mm 11 mps 755 mmHg 70%
    14:00 +4°C° 1.4 mm 12 mps 755 mmHg 67%
    15:00 +4°C° 0.7 mm 11 mps 756 mmHg 67%
    16:00 +4°C° 0.7 mm 11 mps 756 mmHg 67%
    17:00 +4°C° 0.7 mm 11 mps 756 mmHg 67%
    18:00 +5°C° 0.3 mm 10 mps 756 mmHg 66%
    19:00 +5°C° 0.3 mm 10 mps 756 mmHg 65%
    20:00 +5°C° 0.3 mm 9 mps 757 mmHg 64%
    21:00 +5°C° 0.1 mm 9 mps 757 mmHg 63%
    22:00 +3°C° 0.1 mm 9 mps 758 mmHg 61%
    23:00 +3°C° 0.1 mm 9 mps 758 mmHg 60%

    Tomorrow, 21 November, Tuesday

    Time Temperature Precipitation Wind Pressure Humidity
    00:00 +3°C° 0 mm 9 mps 758 mmHg 61%
    01:00 +2°C° 0 mm 9 mps 759 mmHg 63%
    02:00 +2°C° 0 mm 8 mps 759 mmHg 64%
    03:00 +2°C° 0 mm 8 mps 759 mmHg 66%
    04:00 +1°C° 0 mm 8 mps 760 mmHg 68%
    05:00 +1°C° 0 mm 8 mps 760 mmHg 69%
    06:00 +1°C° 0 mm 8 mps 761 mmHg 71%
    07:00 +2°C° 0 mm 7 mps 761 mmHg 72%
    08:00 +2°C° 0 mm 7 mps 761 mmHg 73%
    09:00 +3°C° 0 mm 7 mps 762 mmHg 67%
    10:00 +4°C° 0 mm 6 mps 762 mmHg 62%
    11:00 +5°C° 0 mm 6 mps 763 mmHg 57%
    12:00 +7°C° 0 mm 6 mps 762 mmHg 54%
    13:00 +7°C° 0 mm 6 mps 762 mmHg 52%
    14:00 +7°C° 0 mm 5 mps 762 mmHg 49%
    15:00 +7°C° 0 mm 5 mps 762 mmHg 52%
    16:00 +6°C° 0 mm 5 mps 762 mmHg 55%
    17:00 +6°C° 0 mm 5 mps 762 mmHg 58%
    18:00 +5°C° 0 mm 5 mps 762 mmHg 59%
    19:00 +5°C° 0 mm 5 mps 762 mmHg 61%
    20:00 +5°C° 0 mm 5 mps 762 mmHg 63%
    21:00 +5°C° 0 mm 5 mps 762 mmHg 62%
    22:00 +6°C° 0 mm 5 mps 762 mmHg 62%
    23:00 +6°C° 0 mm 5 mps 762 mmHg 62%

    Day after tomorrow, 22 November, Wednesday

    Time Temperature Precipitation Wind Pressure Humidity
    00:00 +6°C° 0 mm 5 mps 762 mmHg 62%
    01:00 +6°C° 0 mm 5 mps 762 mmHg 63%
    02:00 +6°C° 0 mm 5 mps 762 mmHg 63%
    03:00 +6°C° 0.1 mm 5 mps 762 mmHg 66%
    04:00 +6°C° 0.1 mm 4 mps 761 mmHg 68%
    05:00 +5°C° 0.1 mm 4 mps 761 mmHg 71%
    06:00 +5°C° 0 mm 4 mps 761 mmHg 72%
    07:00 +5°C° 0 mm 4 mps 761 mmHg 74%
    08:00 +5°C° 0 mm 4 mps 762 mmHg 75%
    09:00 +6°C° 0 mm 4 mps 762 mmHg 70%
    10:00 +7°C° 0 mm 4 mps 762 mmHg 66%
    11:00 +8°C° 0 mm 4 mps 762 mmHg 62%
    12:00 +8°C° 0 mm 4 mps 762 mmHg 59%
    13:00 +10°C° 0 mm 3 mps 762 mmHg 56%
    14:00 +10°C° 0 mm 3 mps 762 mmHg 54%
    15:00 +10°C° 0 mm 3 mps 762 mmHg 57%
    16:00 +9°C° 0 mm 2 mps 762 mmHg 60%
    17:00 +8°C° 0 mm 2 mps 763 mmHg 62%
    18:00 +8°C° 0 mm 2 mps 763 mmHg 64%
    19:00 +9°C° 0 mm 1 mps 763 mmHg 65%
    20:00 +9°C° 0 mm 1 mps 763 mmHg 66%
    21:00 +9°C° 0 mm 1 mps 763 mmHg 68%
    22:00 +8°C° 0 mm 1 mps 763 mmHg 69%
    23:00 +8°C° 0 mm 1 mps 764 mmHg 70%

    23 November, Thursday

    Time Temperature Precipitation Wind Pressure Humidity
    00:00 +9°C° 0 mm 1 mps 763 mmHg 71%
    01:00 +9°C° 0 mm 1 mps 763 mmHg 72%
    02:00 +9°C° 0 mm 1 mps 763 mmHg 74%
    03:00 +8°C° 0 mm 2 mps 763 mmHg 76%
    04:00 +8°C° 0 mm 2 mps 763 mmHg 78%
    05:00 +7°C° 0 mm 2 mps 763 mmHg 80%
    06:00 +7°C° 0 mm 2 mps 763 mmHg 81%
    07:00 +7°C° 0 mm 2 mps 763 mmHg 82%
    08:00 +7°C° 0 mm 2 mps 764 mmHg 83%
    09:00 +8°C° 0 mm 2 mps 764 mmHg 78%
    10:00 +9°C° 0 mm 2 mps 764 mmHg 72%
    11:00 +12°C° 0 mm 2 mps 764 mmHg 67%
    12:00 +12°C° 0 mm 2 mps 764 mmHg 65%
    13:00 +13°C° 0 mm 2 mps 764 mmHg 63%
    14:00 +13°C° 0 mm 2 mps 764 mmHg 60%
    15:00 +12°C° 0 mm 2 mps 764 mmHg 65%
    16:00 +11°C° 0 mm 3 mps 765 mmHg 70%
    17:00 +10°C° 0 mm 3 mps 765 mmHg 75%
    18:00 +9°C° 0 mm 3 mps 765 mmHg 78%
    19:00 +9°C° 0 mm 3 mps 766 mmHg 82%
    20:00 +9°C° 0 mm 3 mps 766 mmHg 85%
    21:00 +9°C° 0 mm 2 mps 766 mmHg 86%
    22:00 +9°C° 0 mm 2 mps 767 mmHg 86%
    23:00 +9°C° 0 mm 2 mps 767 mmHg 86%

    24 November, Friday

    Time Temperature Precipitation Wind Pressure Humidity
    00:00 +8°C° 0 mm 2 mps 767 mmHg 87%
    01:00 +8°C° 0 mm 2 mps 767 mmHg 87%
    02:00 +8°C° 0 mm 2 mps 767 mmHg 87%
    03:00 +8°C° 0 mm 2 mps 767 mmHg 87%
    04:00 +8°C° 0 mm 2 mps 767 mmHg 87%
    05:00 +8°C° 0 mm 2 mps 767 mmHg 87%
    06:00 +8°C° 0 mm 2 mps 767 mmHg 88%
    07:00 +8°C° 0 mm 2 mps 767 mmHg 88%
    08:00 +8°C° 0 mm 2 mps 767 mmHg 88%
    09:00 +9°C° 0 mm 2 mps 768 mmHg 84%
    10:00 +12°C° 0 mm 2 mps 768 mmHg 79%
    11:00 +12°C° 0 mm 3 mps 768 mmHg 75%
    12:00 +12°C° 0 mm 3 mps 768 mmHg 73%
    13:00 +12°C° 0 mm 3 mps 768 mmHg 72%
    14:00 +14°C° 0 mm 2 mps 767 mmHg 71%
    15:00 +12°C° 0 mm 3 mps 768 mmHg 74%
    16:00 +12°C° 0 mm 3 mps 768 mmHg 77%
    17:00 +11°C° 0 mm 3 mps 768 mmHg 81%
    18:00 +11°C° 0 mm 3 mps 768 mmHg 83%
    19:00 +10°C° 0 mm 3 mps 768 mmHg 85%
    20:00 +10°C° 0 mm 3 mps 769 mmHg 88%
    21:00 +10°C° 0 mm 3 mps 769 mmHg 88%
    22:00 +10°C° 0 mm 3 mps 769 mmHg 89%
    23:00 +9°C° 0 mm 3 mps 769 mmHg 89%

    25 November, Saturday

    Time Temperature Precipitation Wind Pressure Humidity
    00:00 +9°C° 0 mm 3 mps 769 mmHg 90%
    01:00 +9°C° 0 mm 3 mps 769 mmHg 90%
    02:00 +9°C° 0 mm 2 mps 769 mmHg 90%
    03:00 +9°C° 0 mm 2 mps 769 mmHg 90%
    04:00 +9°C° 0 mm 2 mps 769 mmHg 90%
    05:00 +9°C° 0 mm 2 mps 769 mmHg 90%
    06:00 +9°C° 0 mm 2 mps 770 mmHg 91%
    07:00 +9°C° 0 mm 3 mps 770 mmHg 91%
    08:00 +9°C° 0 mm 3 mps 770 mmHg 91%
    09:00 +10°C° 0 mm 3 mps 770 mmHg 85%
    10:00 +11°C° 0 mm 3 mps 770 mmHg 79%
    11:00 +13°C° 0 mm 3 mps 770 mmHg 74%
    12:00 +13°C° 0 mm 3 mps 770 mmHg 71%
    13:00 +13°C° 0 mm 3 mps 770 mmHg 69%
    14:00 +13°C° 0 mm 4 mps 769 mmHg 67%
    15:00 +13°C° 0 mm 4 mps 769 mmHg 71%
    16:00 +12°C° 0 mm 4 mps 769 mmHg 75%
    17:00 +11°C° 0 mm 4 mps 769 mmHg 80%
    18:00 +11°C° 0 mm 4 mps 769 mmHg 81%
    19:00 +10°C° 0 mm 4 mps 769 mmHg 83%
    20:00 +10°C° 0 mm 4 mps 769 mmHg 84%
    21:00 +10°C° 0 mm 4 mps 769 mmHg 85%
    22:00 +10°C° 0 mm 4 mps 769 mmHg 85%
    23:00 +9°C° 0 mm 5 mps 769 mmHg 85%
    Show more